Preview of NWS' New Version of Forecast
This preview is not operational and should not be used for support decisions.
Latest weather observations around

Glens Falls, Floyd Bennett Memorial Airport (KGFL)

Using English Units (Switch to International System of Units)
Date/ Time (EST) Wind (mph) Vis. (mi) Weather Sky Cond. Temp (°F) Rel. Humidity Wind Chill (°F) Heat Index (°F) Pressure Precip. (in)
Air Dwpt 6 hour Altimeter (inHg) Sea level (inHg) 1 hr 3 hr 6 hr
Max Min
Feb 21 16:53 WSW 9 10 Cloudy OVC041 40 25     55% 34   29.94 29.97      
Feb 21 15:53 5 10 Cloudy OVC041 41 26     55% 38   29.93 29.96      
Feb 21 14:53   10 Cloudy OVC039 41 27     57%     29.91 29.93      
Feb 21 13:53 SSW 8 10 Cloudy OVC038 40 28     62% 34   29.89 29.92      
Feb 21 12:53 SSW 6 10 Cloudy OVC040 39 31     72% 35   29.88 29.9     0
Feb 21 11:53 SSE 7 10 Cloudy FEW035 OVC045 36 33     89% 30   29.88 29.9 0    
Feb 21 10:53 SSW 7 10 Cloudy OVC041 34 31     88% 28   29.86 29.89      
Feb 21 10:30 S 8 8 Cloudy SCT005 BKN038 OVC047 33 31     92% 26   29.86        
Feb 21 10:05 S 7 5 Fog/Mist BKN005 BKN036 OVC043 32 30     92% 26   29.86        
Feb 21 09:53 SSW 5 5 Fog/Mist SCT005 BKN018 OVC044 32 30     92% 27   29.87 29.89 0 0  
Feb 21 09:51 S 7 5 Fog/Mist SCT005 BKN018 OVC039 32 30     93% 26   29.86   0    
Feb 21 09:30 SSW 7 2.5 Light Snow and Fog/Mist BKN006 OVC020 32 29     88% 26   29.86   0    
Feb 21 09:05 S 6 1.75 Light Snow and Fog/Mist OVC004 31 28     89% 25   29.86   0    
Feb 21 09:00 S 6 2 Light Snow and Fog/Mist OVC006 31 28     89% 25   29.86   0    
Feb 21 08:53 S 6 3 Light Snow and Fog/Mist OVC006 30 28     92% 24   29.86 29.88 0    
Feb 21 08:08 S 6 3 Fog/Mist OVC007 29 27     92% 23   29.87        
Feb 21 07:53 S 3 2.5 Fog/Mist OVC007 28 26     92% 24   29.86 29.89      
Feb 21 06:59 Calm 2.5 Fog/Mist OVC004 27 26     96%     29.86        
Feb 21 06:53 Calm 3 Fog/Mist   27 26     96%     29.85 29.88     0
Feb 21 05:53 NNE 3 2 Fog/Mist OVC003 27 25     92% 23   29.86 29.89      
Feb 21 04:53 Calm 2 Clear   25 23     92%     29.87 29.9      
Feb 21 04:40 E 3 1.75 Fog/Mist OVC005 25 23     92% 21   29.88        
Feb 21 03:53 E 6 2.5 Fog/Mist OVC006 24 22     91% 17   29.88 29.91   0  
Feb 21 03:09 ESE 8 2 Fog/Mist OVC006 26 23     88% 18   29.9        
Feb 21 02:53 SE 6 3 Fog/Mist OVC007 27 25     92% 20   29.91 29.94 0    
Feb 21 02:30 Calm 3 Fog/Mist OVC007 26 23     88%     29.93   0    
Feb 21 02:03 Calm 2.5 Light Freezing Rain and Fog/Mist OVC009 25 22     88%     29.94   0    
Feb 21 01:53 NW 5 4 Light Freezing Rain and Fog/Mist OVC010 24 21     88% 18   29.94   0    
Feb 21 01:50 WNW 5 4 Light Freezing Rain and Fog/Mist OVC010 25 21     86% 19   29.95   0    
Feb 21 01:24 WNW 5 5 Fog/Mist OVC013 23 20     88% 17   29.95   0    
Feb 21 01:13 NW 5 4 Light Freezing Rain and Fog/Mist OVC014 23 20     88% 17   29.96   0    
Feb 21 00:53 Calm 4 Unknown Precipitation and Fog/Mist BKN011 OVC016 22 20     92%     29.97 30 0   0
Feb 21 00:25 Calm 3 Unknown Precipitation and Fog/Mist OVC012 22 20     92%     30.01   0    
Feb 21 00:14 Calm 2.5 Unknown Precipitation and Fog/Mist BKN014 OVC029 22 19     88%     30.02   0    
Feb 21 00:02 Calm 2.5 Light Snow and Fog/Mist FEW014 OVC025 22 19     88%     30.04   0    
Feb 20 23:53 Calm 1.5 Light Snow and Fog/Mist FEW014 OVC025 22 19     88%     30.05 30.08 0    
Feb 20 23:36 Calm 2.5 Light Snow and Fog/Mist FEW014 OVC023 22 19     88%     30.08   0    
Feb 20 22:53 Calm 1.25 Light Snow and Fog/Mist FEW004 BKN018 OVC027 22 19     88%     30.11 30.14 0    
Feb 20 22:44 Calm 1.5 Clear   22 19     88%     30.13   0    
Feb 20 22:30 ENE 3 2 Clear   22 19     88% 17   30.14   0    
Feb 20 22:21 Calm 2 Clear   22 19     88%     30.16   0    
Feb 20 21:53 Calm 2 Clear   22 19     88%     30.19 30.22 0 0  
Feb 20 21:49 ESE 3 2 Clear   21 19     93% 17   30.19   0    
Feb 20 20:53 NE 3 1.75 Light Snow and Fog/Mist OVC023 22 18     84% 17   30.23 30.27 0    
Feb 20 20:49 ENE 3 1.75 Light Snow and Fog/Mist OVC025 21 18     86% 17   30.23   0    
Feb 20 20:04 Calm 2 Light Snow OVC029 23 17     78%     30.28   0    
Feb 20 19:53 Calm 4 Light Snow OVC034 23 16     74%     30.29 30.33 0    
Feb 20 18:53 Calm 10 Cloudy OVC055 24 13     62%     30.3 30.34      
Feb 20 17:53 Calm 10 Cloudy BKN043 BKN055 OVC070 25 14     63%     30.34 30.37      
Feb 20 16:53 S 3 10 Cloudy OVC085 25 12     57% 21   30.36 30.4      
Feb 20 15:53 Calm 10 Cloudy SCT080 OVC095 24 11     57%     30.4 30.45      
Feb 20 14:53 S 5 10 Cloudy OVC100 24 11     57% 18   30.42 30.47      
Feb 20 13:53 SE 3 10 Cloudy OVC120 22 10     60% 17   30.46 30.5      
Feb 20 12:53 Calm 10 Mostly Clear FEW120 21 10     62%     30.49 30.53      
Feb 20 11:53 5 10 Clear CLR 19 8     62% 12   30.5 30.55      
Feb 20 10:53 S 3 10 Clear CLR 19 8     62% 14   30.53 30.58      
Feb 20 09:53 S 6 10 Clear CLR 16 7     67% 7   30.56 30.6      
Feb 20 08:53 Calm 10 Clear CLR 11 4     73%     30.59 30.63      
Feb 20 07:53 Calm 10 Clear CLR 3 -2     79%     30.59 30.64      
Feb 20 06:53 Calm 10 Clear CLR -1 -6     79%     30.57 30.61      
Feb 20 05:53 Calm 10 Clear CLR 0 -6     75%     30.57 30.62      
Feb 20 04:53 WSW 3 10 Clear CLR -4        % -12   30.55 30.6      
Feb 20 03:53 Calm 10 Clear CLR -4        %     30.58 30.62      
Feb 20 02:53 Calm 10 Clear CLR -3        %     30.58 30.62      
Feb 20 01:53 Calm 10 Clear CLR -5        %     30.6 30.64      
Feb 20 00:53 Calm 10 Clear CLR -1 -7     75%     30.59 30.63      
Feb 19 23:53 Calm 10 Clear CLR -1        %     30.58 30.63      
Feb 19 22:53 Calm 10 Clear   2 -5     72%     30.59 30.64      
Feb 19 21:53 Calm 10 Clear CLR 7 -3     63%     30.6 30.64      
Feb 19 20:53 NW 3 10 Clear CLR 18 -1     43% 13   30.59 30.64      
Feb 19 19:53 WNW 3 10 Clear CLR 6 -1     72% -1   30.59 30.64      
Feb 19 18:53 N 5 10 Clear CLR 14 2     58% 6   30.56 30.61      
Feb 19 17:53 SSW 5 10 Clear CLR 17 3     53% 10   30.53 30.58      
Feb 19 16:53 S 5 10 Clear CLR 22 3     43% 16   30.51 30.56      
Feb 19 15:53 S 7 10 Clear CLR 23 4     43% 15   30.52 30.57      
Feb 19 14:53 S 9 10 Clear CLR 22 4     45% 12   30.53 30.58      
Feb 19 13:53 SSE 11 10 Clear CLR 22 6     50% 10   30.54 30.59      
Feb 19 12:53 SSE 11 10 Clear CLR 20 6     54% 8   30.54 30.59      
Feb 19 11:53 SSE 8 10 Clear CLR 19 6     56% 9   30.56 30.6      
Feb 19 10:53 Calm 10 Clear CLR 16 4     58%     30.56 30.6      
Feb 19 09:53 SE 3 10 Clear CLR 13 4     67% 7   30.57 30.61      
Feb 19 08:53 Calm 10 Clear CLR 5 3     91%     30.55 30.6      
Feb 19 07:53 Calm 10 Clear CLR -6 -10     82%     30.53 30.59      
Feb 19 07:15 Calm 3 Haze CLR -9 -15     74%     30.51        
Feb 19 07:10 Calm 1.75 Haze CLR -10 -15     78%     30.51        
Feb 19 06:53 Calm 10 Clear   -10        %     30.5 30.55      
Feb 19 05:53 Calm 10 Clear CLR -12        %     30.47 30.52      
Feb 19 04:53 S 3 10 Clear CLR -8 -13     78% -17   30.44 30.49      
Feb 19 03:53 Calm 10 Clear CLR -9        %     30.42 30.46      
Feb 19 02:53 Calm 10 Clear CLR -9        %     30.4 30.45      
Feb 19 01:53 Calm 10 Clear CLR -5 -10     79%     30.38 30.42      
Feb 19 00:53 Calm 10 Clear CLR -4 -9     78%     30.35 30.39      
Feb 18 23:53 Calm 10 Clear CLR 0 -3     87%     30.33 30.37      
Feb 18 22:53 Calm 10 Clear CLR 3 -2     79%     30.3 30.35      
Feb 18 21:53 Calm 10 Clear CLR 1 -4     79%     30.28 30.32      
Feb 18 20:53 Calm 10 Clear CLR 0 -4     83%     30.26 30.3      
Feb 18 19:53 Calm 10 Clear CLR 7 2     79%     30.22 30.26      
Feb 18 19:31 Calm 10 Mostly Clear FEW022 8 3     79%     30.2        
Feb 18 19:20 Calm 10 Mostly Cloudy BKN023 10 5     80%     30.19        
Feb 18 19:10 Calm 10 Mostly Cloudy SCT023 BKN032 12 5     73%     30.19        
Feb 18 19:02 Calm 10 Mostly Cloudy BKN023 BKN034 15 6     67%     30.18        
Feb 18 18:53 Calm 10 Mostly Cloudy SCT025 BKN034 12 5     73%     30.17 30.21     0
Feb 18 18:39 Calm 10 Cloudy SCT025 OVC037 15 7     70%     30.15        
Feb 18 18:10 ENE 8 10 Cloudy BKN025 BKN033 OVC043 17 7     64% 7   30.12        
Feb 18 17:53 NE 8 9 Cloudy OVC041 18 8     65% 8   30.1 30.14 0    
Feb 18 16:53 NE 10 10 Cloudy BKN030 OVC040 19 10     67% 7   30.04 30.08      
Feb 18 16:45 NE 10 10 Cloudy BKN029 OVC038 19 10     67% 7   30.04        
May 15 04:53 Calm 10 Mostly Cloudy BKN090 56 54     93%     29.8 29.79      
May 14 03:42 SSW 7 10 Cloudy BKN014 BKN026 OVC039 53 49     86%     29.98        
May 13 22:53 SSW 10 10 Clear CLR 53 48     83%     30.03 30.03      
May 13 18:53 SSW 9 10 Clear CLR 66 44     45%     29.99 30      
Notice The following observation data may not be complete
May 13 00:13 Calm 0.75 Fog/Mist VV003   35      %     30.15        
May 12 11:53 5 10 Cloudy OVC065 51 33     50%     30.16 30.17 0    
May 12 10:53 Calm 10 Light Rain BKN085 OVC120 50 33     52%     30.17 30.19 0 0  
May 11 15:53   10 Clear CLR 60 31     33%     30.03 30.03      
Jun 09 08:53 S 5 10 Mostly Cloudy BKN070 64 51     63%     29.71 29.7      
Jun 07 20:15 Calm 10 Mostly Clear FEW002 64 52     65%     29.98